User: anonymous   Login
Location: Archemont
(49.1579°N, 1.7598°E)
Time: 23:37:51
(UTC+00:00)
Language:

Courier 1B - Orbit

View from above orbital plane
View from above orbital plane
View from above satellite
View from above satellite

Ground track
Ground track

The orbit data is extracted from the following two-line orbital elements,

1 00058U 60013A   24107.53967537  .00000126  00000-0  62200-4 0  9995
2 00058  28.3260 196.5235 0164844 132.6980 228.7575 13.46372037127296
Epoch (UTC): 16 April 2024 12:57:07
Eccentricity: 0.0164844
inclination: 28.3260°
perigee height: 962 km
apogee height: 1208 km
right ascension of ascending node: 196.5235°
argument of perigee: 132.6980°
revolutions per day: 13.46372037
mean anomaly at epoch: 228.7575°
orbit number at epoch: 12729

The dashed part of the orbit path shows where the satellite is in the earth's shadow,  

DLR